Time,TemperatureF,DewpointF,PressureIn,WindDirection,WindDirectionDegrees,WindSpeedMPH,WindSpeedGustMPH,Humidity,HourlyPrecipIn,Conditions,Clouds,dailyrainin,SoftwareType,DateUTC
2013-10-19 00:22:00,29.0,18.0,30.22,SW,236,10.0,16.0,62,0.00,,,0.07,,2013-10-19 06:22:00,
2013-10-19 00:42:00,29.0,17.0,30.21,WSW,252,12.0,19.0,61,0.00,,,0.07,,2013-10-19 06:42:00,
2013-10-19 00:52:00,29.0,17.0,30.20,WSW,255,11.0,17.0,61,0.00,,,0.07,,2013-10-19 06:52:00,
2013-10-19 01:22:00,30.0,18.0,30.20,SSW,212,12.0,19.0,60,0.00,,,0.07,,2013-10-19 07:22:00,
2013-10-19 01:53:00,30.0,18.0,30.20,SW,231,12.0,20.0,60,0.00,,,0.07,,2013-10-19 07:53:00,
2013-10-19 02:22:00,29.0,17.0,30.20,SW,234,11.0,18.0,60,0.00,,,0.07,,2013-10-19 08:22:00,
2013-10-19 02:42:00,29.0,18.0,30.21,WSW,253,7.0,11.0,62,0.00,,,0.07,,2013-10-19 08:42:00,
2013-10-19 02:52:00,29.0,17.0,30.21,West,261,8.0,13.0,61,0.00,,,0.07,,2013-10-19 08:52:00,
2013-10-19 03:21:00,30.0,18.0,30.20,WSW,248,11.0,16.0,60,0.00,,,0.07,,2013-10-19 09:21:00,
2013-10-19 03:54:00,30.0,18.0,30.18,West,279,5.0,13.0,60,0.00,,,0.07,,2013-10-19 09:54:00,
2013-10-19 04:23:00,29.0,17.0,30.17,SSW,196,5.0,12.0,60,0.00,,,0.07,,2013-10-19 10:23:00,
2013-10-19 04:53:00,29.0,17.0,30.15,SSW,192,7.0,13.0,61,0.00,,,0.07,,2013-10-19 10:53:00,
2013-10-19 05:22:00,31.0,17.0,30.14,WSW,246,11.0,18.0,56,0.00,,,0.07,,2013-10-19 11:22:00,
2013-10-19 05:52:00,30.0,17.0,30.15,SSW,199,12.0,23.0,57,0.00,,,0.07,,2013-10-19 11:52:00,
2013-10-19 06:21:00,30.0,17.0,30.17,SW,229,10.0,16.0,58,0.00,,,0.07,,2013-10-19 12:21:00,
2013-10-19 06:52:00,31.0,17.0,30.15,SW,216,15.0,23.0,56,0.00,,,0.07,,2013-10-19 12:52:00,
2013-10-19 07:22:00,31.0,18.0,30.15,SSW,199,13.0,23.0,57,0.00,,,0.07,,2013-10-19 13:22:00,
2013-10-19 07:52:00,32.0,18.0,30.14,SSW,198,11.0,29.0,55,0.00,,,0.07,,2013-10-19 13:52:00,
2013-10-19 08:21:00,33.0,17.0,30.14,SSE,155,13.0,22.0,52,0.00,,,0.07,,2013-10-19 14:21:00,
2013-10-19 08:52:00,35.0,18.0,30.11,South,191,16.0,28.0,49,0.00,,,0.07,,2013-10-19 14:52:00,
2013-10-19 09:22:00,37.0,18.0,30.11,SSW,195,16.0,32.0,46,0.00,,,0.07,,2013-10-19 15:22:00,
2013-10-19 09:55:00,39.0,19.0,30.14,WSW,243,15.0,21.0,44,0.00,,,0.07,,2013-10-19 15:55:00,
2013-10-19 10:24:00,38.0,19.0,30.15,SW,233,14.0,24.0,45,0.00,,,0.07,,2013-10-19 16:24:00,
2013-10-19 10:53:00,40.0,19.0,30.16,WSW,244,13.0,24.0,43,0.00,,,0.04,,2013-10-19 16:53:00,
2013-10-19 11:22:00,44.0,20.0,30.15,WSW,246,14.0,27.0,38,0.00,,,0.04,,2013-10-19 17:22:00,
2013-10-19 11:52:00,44.0,19.0,30.13,South,179,20.0,30.0,37,0.00,,,0.01,,2013-10-19 17:52:00,
2013-10-19 12:22:00,45.0,20.0,30.14,WSW,248,10.0,19.0,36,0.00,,,0.01,,2013-10-19 18:22:00,
2013-10-19 12:52:00,47.0,21.0,30.12,SSW,213,11.0,26.0,36,0.00,,,0.01,,2013-10-19 18:52:00,
2013-10-19 13:22:00,47.0,22.0,30.11,SSW,205,10.0,20.0,37,0.00,,,0.01,,2013-10-19 19:22:00,
2013-10-19 13:52:00,49.0,23.0,30.10,South,191,11.0,20.0,36,0.00,,,0.00,,2013-10-19 19:52:00,
2013-10-19 14:22:00,48.0,22.0,30.09,NW,304,14.0,22.0,35,0.00,,,0.00,,2013-10-19 20:22:00,
2013-10-19 14:52:00,48.0,22.0,30.08,SW,226,14.0,33.0,36,0.00,,,0.00,,2013-10-19 20:52:00,
2013-10-19 15:21:00,48.0,22.0,30.08,SW,218,14.0,25.0,35,0.00,,,0.00,,2013-10-19 21:21:00,
2013-10-19 15:54:00,46.0,21.0,30.07,WSW,248,12.0,28.0,36,0.00,,,0.00,,2013-10-19 21:54:00,
2013-10-19 16:24:00,48.0,21.0,30.06,WNW,300,12.0,31.0,34,0.00,,,0.00,,2013-10-19 22:24:00,
2013-10-19 16:53:00,49.0,23.0,30.06,WNW,295,10.0,20.0,35,0.00,,,0.00,,2013-10-19 22:53:00,
2013-10-19 17:22:00,48.0,23.0,30.07,West,280,5.0,24.0,37,0.00,,,0.00,,2013-10-19 23:22:00,
2013-10-19 17:52:00,46.0,22.0,30.06,WSW,257,4.0,8.0,39,0.00,,,0.00,,2013-10-19 23:52:00,
2013-10-19 18:22:00,46.0,23.0,30.06,NW,323,5.0,17.0,40,0.00,,,0.00,,2013-10-20 00:22:00,
2013-10-19 18:52:00,45.0,23.0,30.06,NW,309,10.0,18.0,42,0.00,,,0.00,,2013-10-20 00:52:00,
2013-10-19 19:22:00,44.0,22.0,30.06,SSW,207,8.0,18.0,42,0.00,,,0.00,,2013-10-20 01:22:00,
2013-10-19 19:52:00,44.0,23.0,30.06,SSW,192,4.0,17.0,44,0.00,,,0.00,,2013-10-20 01:52:00,
2013-10-19 20:22:00,43.0,22.0,30.06,NNW,340,7.0,12.0,43,0.00,,,0.00,,2013-10-20 02:22:00,
2013-10-19 20:52:00,43.0,22.0,30.08,South,190,11.0,20.0,43,0.00,,,0.00,,2013-10-20 02:52:00,
2013-10-19 21:21:00,43.0,22.0,30.06,SW,217,12.0,24.0,43,0.00,,,0.00,,2013-10-20 03:21:00,
2013-10-19 21:55:00,42.0,22.0,30.06,SSW,202,8.0,22.0,44,0.00,,,0.00,,2013-10-20 03:55:00,
2013-10-19 22:02:00,-999.0,-99.9,30.05,SSW,211,8.0,25.0,-999,-99.99,,,-99.99,,2013-10-20 04:02:00,
2013-10-19 22:24:00,43.0,22.0,30.06,WNW,293,9.0,19.0,42,0.00,,,0.00,,2013-10-20 04:24:00,
2013-10-19 22:54:00,43.0,22.0,30.07,SSW,193,6.0,19.0,42,0.00,,,0.00,,2013-10-20 04:54:00,
2013-10-19 23:23:00,42.0,21.0,30.07,SW,228,4.0,14.0,43,0.00,,,0.00,,2013-10-20 05:23:00,
2013-10-19 23:52:00,42.0,21.0,30.06,SW,236,11.0,21.0,43,0.00,,,0.00,,2013-10-20 05:52:00,